Simultaneous Nadir Overpasses (SNOs) Predictions

Prediction of SNOs between GOES-15 and METOP-A Satellite Orbit:

Table of predicted SNOs for the next 14.0 days since TLE Epoch: 2/22/2019
Index Date Time (GOES-15) GOES-15 Lat,Lon METOP-A Lat,Lon Distance(km) Time Diff (sec)
1 02/23/2019 05:40:38 -0.02,-128.30 0.11,-127.73 64.36 80
2 02/24/2019 17:59:26 0.02,-128.30 0.91,-132.30 455.52 80
3 02/25/2019 17:41:23 0.02,-128.31 -0.19,-127.30 115.57 80
4 02/27/2019 06:00:19 -0.02,-128.36 -0.81,-131.90 403.38 80
5 02/28/2019 05:36:57 -0.02,-128.37 0.29,-126.90 166.96 80
6 03/01/2019 17:55:45 0.01,-128.36 0.67,-131.48 354.36 80
7 03/02/2019 17:37:43 0.01,-128.37 -0.43,-126.48 216.20 80
8 03/04/2019 05:56:39 -0.00,-128.41 -0.57,-131.08 303.17 80
9 03/05/2019 05:33:17 -0.00,-128.42 0.53,-126.08 266.83 80
10 03/06/2019 17:52:04 0.00,-128.40 0.49,-130.64 255.19 80
11 03/07/2019 17:34:02 0.00,-128.41 -0.62,-125.64 315.06 80




NCC Satellite Simultaneous Nadir Overpasses (SNOs) Prediction Service
